Regional Weather Roundup
Issued by NWS

Home | Current Version | Previous Version | Text Only | Print | Product List | Glossary Off
Versions: 1 2 3 4 5 6 7 8 9 10 11 12 13 14 15 16 17 18 19 20 21 22 23 24 25 26 27 28 29 30 31 32 33 34 35 36 37 38 39 40 41 42 43 44 45 46 47 48 49 50

000
ASUS45 KCYS 060610
RWRWY

WYOMING REGIONAL WEATHER ROUNDUP
NATIONAL WEATHER SERVICE CHEYENNE WY
1200 AM MDT MON JUL 06 2015

NOTE:  "FAIR" INDICATES FEW OR NO CLOUDS BELOW 12,000 FEET
WITH NO SIGNIFICANT WEATHER AND/OR OBSTRUCTIONS TO VISIBILITY.

WYZ001-060700-
YELLOWSTONE NATIONAL PARK

CITY           SKY/WX    TMP DP  RH WIND       PRES   REMARKS
LK YELLOWSTONE   N/A     49  47  93 CALM      30.36R
6HR MIN TEMP:  48; 6HR MAX TEMP:  67; 6HR PCP:  0.29;

W YELLOWSTONE  NOT AVBL

$$
WYZ002>013-054>058-071-098>099-060700-
NORTHERN WYOMING

CITY           SKY/WX    TMP DP  RH WIND       PRES   REMARKS
JACKSON        CLOUDY    55  55 100 CALM      30.24R
CODY           CLOUDY    52  50  93 CALM      30.22F
GREYBULL       CLOUDY    59  51  75 NW8       30.16S
6HR MIN TEMP:  59; 6HR MAX TEMP:  62;

WORLAND        CLOUDY    58  53  84 NW10      30.18R HAZE
6HR MIN TEMP:  58; 6HR MAX TEMP:  62;

SHERIDAN       LGT RAIN  56  53  90 W5        30.21S FOG
6HR MIN TEMP:  56; 6HR MAX TEMP:  58; 6HR PCP:  0.03;

BUFFALO        CLOUDY    53  51  93 NW10      30.24R FOG
6HR MIN TEMP:  53; 6HR MAX TEMP:  55; 6HR PCP:  0.05;

GILLETTE       CLOUDY    56  54  93 NW9       30.18R FOG
6HR MIN TEMP:  56; 6HR MAX TEMP:  58; 6HR PCP:  0.05;

HULETT         CLOUDY    55  54  94 CALM      30.18R FOG
NEWCASTLE      DRIZZLE   59  52  77 N7        30.12R

$$
WYZ014>020-022>026-101>103-060700-
CENTRAL WYOMING

CITY           SKY/WX    TMP DP  RH WIND       PRES   REMARKS
BIG PINEY      CLOUDY    59  50  72 N20G28    30.26R
6HR MIN TEMP:  57; 6HR MAX TEMP:  68;

PINEDALE       CLOUDY    55  48  76 NW22G33   30.27R
DUBOIS         RAIN      52  50  93 CALM      30.26F
LANDER         FAIR      56  54  93 NW7       30.20R
6HR MIN TEMP:  56; 6HR MAX TEMP:  62; 6HR PCP: TRACE;

RIVERTON       CLOUDY    58  56  93 N10       30.21R
6HR MIN TEMP:  59; 6HR MAX TEMP:  62; 6HR PCP: TRACE;

CASPER         LGT RAIN  55  53  93 N10       30.19R
6HR MIN TEMP:  55; 6HR MAX TEMP:  61; 6HR PCP:  0.15;

DOUGLAS        LGT RAIN  57  55  93 N13       30.16R
6HR MIN TEMP:  57; 6HR MAX TEMP:  67; 6HR PCP:  0.05;


$$
WYZ021-027>030-104>119-060700-
SOUTHERN WYOMING

CITY           SKY/WX    TMP DP  RH WIND       PRES   REMARKS
EVANSTON       FAIR      57  52  83 SE5       30.25R
6HR MIN TEMP:  56; 6HR MAX TEMP:  71; 6HR PCP:  0.03;

KEMMERER       FAIR      55  50  82 N3        30.26R
FORT BRIDGER   CLEAR     59  59 100 W7        30.26F
ROCK SPRINGS   FAIR      57  53  86 NE10      30.23R
6HR MIN TEMP:  57; 6HR MAX TEMP:  65;

DIXON          FAIR      53  51  95 E3        30.24S
RAWLINS        LGT RAIN  59  57  93 CALM      30.21R
6HR MIN TEMP:  57; 6HR MAX TEMP:  60; 6HR PCP:  0.02;

SARATOGA       FAIR      54  54 100 CALM      30.23S
LARAMIE        CLOUDY    57  56  96 SW3       30.23R
6HR MIN TEMP:  57; 6HR MAX TEMP:  60; 6HR PCP:  0.06;

CHEYENNE       CLOUDY    58  57  97 N14G25    30.16R FOG
6HR MIN TEMP:  58; 6HR MAX TEMP:  66; 6HR PCP: TRACE;

TORRINGTON     CLOUDY    63  58  83 NE14      30.09R
6HR MIN TEMP:  63; 6HR MAX TEMP:  66; 6HR PCP:  0.45;

PINE BLUFFS    CLOUDY    61  59  94 N17       30.12R

$$



USA.gov is the U.S. government's official web portal to all federal, state and local government web resources and services.